Location: Croagnes
(43.9363°N, 5.3265°E)
Time: 04:48:09
(UTC+00:00)

Cosmos 921 Rocket - Pass Details

Date: 06 June 2020
Orbit: 571 x 632 km, 75.8° (Epoch: 14 July)

Event Time Altitude Azimuth Distance (km) Brightness Sun altitude
Exits shadow 23:29:31 33° 263° (W) 1,005 4.0 -23.3°
Maximum altitude 23:30:29 38° 294° (WNW) 923 4.1 -23.3°
Drops below altitude 10° 23:34:35 10° 3° (N) 1,969 6.7 -23.3°
Sets 23:36:59 0° 12° (NNE) 2,889 7.9 -23.3°
